Boonton, New Jersey, United States (07005)
Lat: 40.90N, Lon: 74.41W
Wx Zone: NJZ008
Local Info
Past Weather Observations for Friday, August 19, 2016

NOTE: This archive is for the closest National Weather Service station to Boonton. Information may differ from the station used for current weather conditions.

Click here for Long-term Archive

Time Weather Temperature Dewpoint Humidity Pressure Winds Precip Visibility
23:53
Clear
73°F / 23°C 68°F / 20°C 83% 29.95 in
(1014 mb)
Calm - 10SM
22:53
Clear
73°F / 23°C 68°F / 20°C 83% 29.95 in
(1014 mb)
Calm - 10SM
21:53
Clear
75°F / 24°C 66°F / 19°C 74% 29.95 in
(1014 mb)
Calm - 10SM
20:53
Clear
79°F / 26°C 66°F / 19°C 65% 29.95 in
(1014 mb)
Calm - 10SM
19:53
Mostly Cloudy
81°F / 27°C 64°F / 18°C 58% 29.95 in
(1014 mb)
Calm - 10SM
18:53
Clear
82°F / 28°C 63°F / 17°C 51% 29.92 in
(1013 mb)
Calm - 10SM
17:53
Clear
84°F / 29°C 63°F / 17°C 48% 29.92 in
(1013 mb)
Calm - 10SM
16:53
Partly Cloudy
86°F / 30°C 63°F / 17°C 46% 29.92 in
(1013 mb)
Calm - 10SM
15:53
Clear
88°F / 31°C 63°F / 17°C 43% 29.92 in
(1013 mb)
NNW 4.6 mph
(NNW 7 kph)
- 10SM
14:53
Clear
88°F / 31°C 64°F / 18°C 46% 29.92 in
(1013 mb)
Variable 3.5 mph
(Variable 6 kph)
- 10SM
13:53
Clear
86°F / 30°C 64°F / 18°C 49% 29.95 in
(1014 mb)
Variable 3.5 mph
(Variable 6 kph)
- 10SM
12:53
Partly Cloudy
84°F / 29°C 64°F / 18°C 51% 29.95 in
(1014 mb)
Variable 5.8 mph
(Variable 9 kph)
- 10SM
11:53
Mostly Cloudy
84°F / 29°C 66°F / 19°C 55% 29.95 in
(1014 mb)
Variable 5.8 mph
(Variable 9 kph)
- 10SM
10:53
Mostly Cloudy
82°F / 28°C 64°F / 18°C 55% 29.98 in
(1015 mb)
ENE 6.9 mph
(ENE 11 kph)
- 10SM
09:53
Mostly Cloudy
81°F / 27°C 66°F / 19°C 62% 29.98 in
(1015 mb)
Variable 6.9 mph
(Variable 11 kph)
- 10SM
08:53
Partly Cloudy
81°F / 27°C 66°F / 19°C 62% 29.98 in
(1015 mb)
NNE 5.8 mph
(NNE 9 kph)
- 10SM
07:53
Clear
77°F / 25°C 68°F / 20°C 74% 29.98 in
(1015 mb)
Variable 4.6 mph
(Variable 7 kph)
- 10SM
06:53
Mostly Cloudy
73°F / 23°C 68°F / 20°C 83% 29.98 in
(1015 mb)
ENE 4.6 mph
(ENE 7 kph)
- 10SM
05:53
Clear
70°F / 21°C 68°F / 20°C 94% 29.98 in
(1015 mb)
Calm - 10SM
04:53
Clear
70°F / 21°C 68°F / 20°C 94% 29.95 in
(1014 mb)
Calm - 10SM
03:53
Partly Cloudy
72°F / 22°C 68°F / 20°C 88% 29.95 in
(1014 mb)
Calm - 10SM
02:53
Clear
70°F / 21°C 68°F / 20°C 94% 29.95 in
(1014 mb)
Calm - 10SM
01:53
Clear
72°F / 22°C 68°F / 20°C 88% 29.95 in
(1014 mb)
Calm - 10SM
00:53
Partly Cloudy
73°F / 23°C 70°F / 21°C 89% 29.95 in
(1014 mb)
Calm - 10SM
Time Weather Temperature Dewpoint Humidity Pressure Winds Precip Visibility


Weather for websites

WeatherForYou.com, LLC is not responsible for any damages or problems caused by this service. Current weather conditions are obtained from the closest station including government and personal stations which may have varying degrees of accuracy. Weather forecasts are derived from the NOAA NDFD. Like all things, this site belongs to Jesus Christ... He just trusts us to maintain it. If you have any questions or comments email webmaster@weatherforyou.com

Copyright © 2016, WeatherForYou.com LLC. All rights reserved.